Regional Weather Roundup
Issued by NWS State College, PA

Home | Current Version | Previous Version | Graphics & Text | Print | Product List | Glossary On
Versions: 1 2 3 4 5 6 7 8 9 10 11 12 13 14 15 16 17 18 19 20 21 22 23 24 25 26 27 28 29 30 31 32 33 34 35 36 37 38 39 40 41 42 43 44 45 46 47 48 49 50
000
ASUS41 KCTP 020410
RWRCTP

REGIONAL WEATHER ROUNDUP
NATIONAL WEATHER SERVICE STATE COLLEGE PA
1200 AM EDT TUE SEP 02 2014

Note: "fair" indicates few or no clouds below 12,000 feet with no
significant weather and/or obstructions to visibility.

* = STATION THAT DOES NOT REPORT PRECIPITATION /E.G. RAIN...SNOW...ETC/
    THUNDER OR FOG.

PAZ002>004-007>009-013>016-020>023-029>032-020500-
WESTERN PENNSYLVANIA

CITY           SKY/WX    TMP DP  RH WIND       PRES   REMARKS
ERIE           LGT RAIN  76  70  82 SW8       29.89R
MEADVILLE      CLOUDY    73  69  87 SW7       29.94R
FRANKLIN*      CLOUDY    72  66  83 SW9       29.97S
NEW CASTLE     FAIR      74  71  90 SW6       29.95S
BEAVER COUNTY  NOT AVBL
BUTLER*        PTCLDY    72  66  83 S10       29.99R
PITTSBURGH INT MOCLDY    74  68  81 SW12      29.97S
PITTSBURGH     PTCLDY    73  68  84 S9        29.98S
INDIANA*       CLOUDY    73  70  88 SW8       30.03S
LATROBE        PTCLDY    75  70  83 S12       30.00S
WASHINGTON CO* PTCLDY    72  68  88 S6        30.00S
$$

PAZ004>006-010>012-017>019-024>028-033>037-041-042-045-046-049>053-020500-
CENTRAL PENNSYLVANIA

CITY           SKY/WX    TMP DP  RH WIND       PRES   REMARKS
BRADFORD       MOCLDY    70  67  90 VRB3      29.99S
DUBOIS         CLOUDY    72  68  87 SW9       29.99S
CLEARFIELD     MOCLDY    70  68  93 CALM      30.00S
JOHNSTOWN      PTCLDY    71  65  81 SW8       30.05S
ALTOONA        MOCLDY    75  67  76 SW10      30.01S
STATE COLLEGE  MOCLDY    71  69  94 CALM      29.98F
WILLIAMSPORT   CLEAR     72  69  90 CALM      29.94S
SELINSGROVE    PTCLDY    70  69  97 CALM      29.96S FOG
FT INDIANTOWN  CLEAR     72  72 100 CALM      29.97S
CAPITAL CITY   CLEAR     77  72  84 CALM      29.95F
HARRISBURG     PTCLDY    80  72  76 SW12      29.95S
YORK           PTCLDY    73  71  93 CALM      29.97S
$$

PAZ038>040-043-044-047-048-054-055-060>062-067>071-020500-
EASTERN PENNSYLVANIA

CITY           SKY/WX    TMP DP  RH WIND       PRES   REMARKS
SCRANTON       MOCLDY    74  69  85 CALM      29.97F
MOUNT POCONO   CLEAR     69  66  90 W5        30.02F
ALLENTOWN      PTCLDY    76  70  82 CALM      29.96S
QUAKERTOWN*    CLEAR     73  72  94 CALM      29.98S
READING        CLEAR     75  72  90 CALM      29.95S
LANCASTER      CLEAR     73  72  96 CALM      29.97S
COATESVILLE    PTCLDY    73  73 100 CALM      29.99F FOG
POTTSTOWN      PTCLDY    72  72 100 CALM      29.98S FOG
BLUE BELL      CLEAR     73  72  94 CALM      29.95F
DOYLESTOWN     CLEAR     74  72  93 CALM      29.96F
WILLOW GROVE   NOT AVBL
NORTH PHILA    CLEAR     78  72  81 CALM      29.96F
PHILADELPHIA   CLEAR     78  74  87 S3        29.96F
$$



USA.gov is the U.S. government's official web portal to all federal, state and local government web resources and services.